This is the latest recevied weather packets stored in our database for station/object IR1BY-3. If no packets are shown the sender has not sent any weather packets the latest 10 day(s).
| Time | Temp. | Humidity | Pressure | Rain* | Wind** | Luminosity | Snow |
|---|---|---|---|---|---|---|---|
| 1777627839 | 27.78° C | 99% | 1025 hPa | - | - | - | - |
| 1777626035 | 30° C | 99% | 1024.7 hPa | - | - | - | - |
| 1777622427 | 25° C | 99% | 1024.5 hPa | - | - | - | - |
| 1777620623 | 21.11° C | 99% | 1024.5 hPa | - | - | - | - |
| 1777618820 | 16.67° C | 99% | 1024.3 hPa | - | - | - | - |
| 1777617016 | 12.78° C | 99% | 1024.2 hPa | - | - | - | - |
| 1777615212 | 8.33° C | 99% | 1024.2 hPa | - | - | - | - |
| 1777613408 | 7.22° C | 99% | 1024 hPa | - | - | - | - |
| 1777611605 | 6.11° C | 99% | 1023.5 hPa | - | - | - | - |
| 1777609801 | 5.56° C | 99% | 1023.2 hPa | - | - | - | - |
| 1777607997 | 6.11° C | 99% | 1023.3 hPa | - | - | - | - |
| 1777606193 | 6.11° C | 99% | 1023.2 hPa | - | - | - | - |
| 1777604389 | 6.67° C | 99% | 1023.2 hPa | - | - | - | - |
| 1777602586 | 6.67° C | 99% | 1023.3 hPa | - | - | - | - |
| 1777600782 | 6.67° C | 99% | 1023.4 hPa | - | - | - | - |
| 1777598978 | 7.22° C | 99% | 1023.1 hPa | - | - | - | - |
| 1777597174 | 7.78° C | 99% | 1022.8 hPa | - | - | - | - |
| 1777595371 | 7.78° C | 99% | 1023 hPa | - | - | - | - |
| 1777593570 | 7.78° C | 99% | 1022.8 hPa | - | - | - | - |
| 1777591770 | 7.22° C | 99% | 1022.7 hPa | - | - | - | - |
| 1777589970 | 7.78° C | 99% | 1022.1 hPa | - | - | - | - |
| 1777588169 | 7.78° C | 99% | 1022.1 hPa | - | - | - | - |
| 1777586369 | 8.33° C | 99% | 1022.1 hPa | - | - | - | - |
| 1777584569 | 8.33° C | 99% | 1022.1 hPa | - | - | - | - |
| 1777582769 | 8.33° C | 99% | 1022 hPa | - | - | - | - |
* Rain since midnight (hover to see other rain measurements)
** Current wind speed in m/s (hover to see current wind gust speed)